Weather History for KOWB - December, 2013

Change the Weather History Date:

Saturday, December 21, 2013

  Actual Average Record
Temperature  
Mean Temperature 57 °F -  
Max Temperature 66 °F 42 °F 69 °F (1967)
Min Temperature 48 °F 25 °F -3 °F (1989)
Degree Days  
Heating Degree Days 8    
Growing Degree Days 7 (Base 50)    
Moisture  
Dew Point 59 °F    
Average Humidity 99    
Maximum Humidity 100    
Minimum Humidity 93    
Precipitation  
Precipitation 1.92 in - - ()
Sea Level Pressure  
Sea Level Pressure 29.66 in    
Wind  
Wind Speed 15 mph (South)    
Max Wind Speed 47 mph    
Max Gust Speed 58 mph    
Visibility 6 miles    
Events Rain , Thunderstorm    
Averages and records for this station are not official NWS values.
T = Trace of Precipitation, MM = Missing Value Source: NWS Daily Summary

Daily Weather History Graph

Daily Weather History Graph

Search for Another Location

Airport or City:

Trip Planner

Search our weather history database for the weather conditions in past years. The results will help you decide how hot, cold, wet, or windy it might be!

Date:

Astronomy

Dec. 21, 2013 Rise Set
Actual Time 7:00 AM CST 4:33 PM CST
Civil Twilight 6:31 AM CST 5:02 PM CST
Nautical Twilight 5:58 AM CST 5:35 PM CST
Astronomical Twilight 5:26 AM CST 6:07 PM CST
Moon 8:45 PM CST (12/21) 9:30 AM CST (12/21)
Length of Visible Light 10h 31m
Length of Day
9h 33m
Waning Gibbous, 84% of the Moon is Illuminated
Dec 21
Waning Gibbous
Dec 25
Last Quarter
Jan 1
New
Jan 7
First Quarter
Jan 15
Full

Hourly Weather History & Observations

Time (CST) Temp. Dew Point Humidity Pressure Visibility Wind Dir Wind Speed Gust Speed Precip Events Conditions
12:56 AM 61.9 °F 61.9 °F 100% 29.80 in 10.0 mi South 16.1 mph - 0.00 in Rain Light Rain
1:34 AM 60.8 °F 60.8 °F 100% 29.79 in 6.0 mi South 17.3 mph - 0.02 in Rain Light Rain
1:56 AM 61.9 °F 61.9 °F 100% 29.79 in 7.0 mi South 19.6 mph - 0.03 in Rain Light Rain
2:10 AM 60.8 °F 60.8 °F 100% 29.79 in 5.0 mi South 16.1 mph - 0.01 in Rain Light Rain
2:32 AM 60.8 °F 60.8 °F 100% 29.79 in 5.0 mi South 16.1 mph - 0.02 in Rain Light Rain
2:56 AM 61.0 °F 61.0 °F 100% 29.76 in 5.0 mi South 24.2 mph - 0.06 in Rain Rain
3:06 AM 60.8 °F 60.8 °F 100% 29.77 in 3.0 mi South 24.2 mph 31.1 mph 0.05 in Rain , Thunderstorm Heavy Thunderstorms and Rain
3:12 AM 60.8 °F 60.8 °F 100% 29.78 in 2.5 mi South 21.9 mph - 0.07 in Rain , Thunderstorm Heavy Thunderstorms and Rain
3:20 AM 60.8 °F 60.8 °F 100% 29.77 in 2.5 mi South 20.7 mph - 0.11 in Rain Heavy Rain
3:30 AM 60.8 °F 60.8 °F 100% 29.73 in 2.5 mi SSE 19.6 mph - 0.16 in Rain Heavy Rain
3:38 AM 60.8 °F 60.8 °F 100% 29.74 in 4.0 mi SSE 17.3 mph - 0.18 in Rain Rain
3:56 AM 59.9 °F 59.9 °F 100% 29.74 in 9.0 mi South 19.6 mph - 0.19 in Rain Light Rain
4:06 AM 60.8 °F 60.8 °F 100% 29.73 in 5.0 mi South 15.0 mph - 0.02 in Rain Rain
4:56 AM 59.0 °F 59.0 °F 100% 29.73 in 10.0 mi Variable 3.5 mph - 0.05 in Rain Light Rain
5:01 AM 59.0 °F 59.0 °F 100% 29.74 in 10.0 mi NW 6.9 mph - 0.00 in Rain Light Rain
5:10 AM 59.0 °F 59.0 °F 100% 29.74 in 4.0 mi NNW 4.6 mph - 0.04 in Rain Heavy Rain
5:30 AM 59.0 °F 59.0 °F 100% 29.71 in 10.0 mi SE 9.2 mph - 0.06 in Rain , Thunderstorm Light Thunderstorms and Rain
5:39 AM 59.0 °F 59.0 °F 100% 29.72 in 10.0 mi SSE 9.2 mph - 0.06 in Rain Light Rain
5:56 AM 59.0 °F 59.0 °F 100% 29.72 in 3.0 mi ESE 3.5 mph - 0.18 in Rain Rain
6:56 AM 59.0 °F 59.0 °F 100% 29.72 in 5.0 mi Variable 3.5 mph - 0.08 in Rain Light Rain
7:56 AM 59.9 °F 59.9 °F 100% 29.73 in 5.0 mi SE 6.9 mph - 0.06 in Rain Light Rain
8:13 AM 60.8 °F 60.8 °F 100% 29.72 in 2.0 mi South 11.5 mph - 0.05 in Rain Rain
8:21 AM 60.8 °F 60.8 °F 100% 29.73 in 5.0 mi South 15.0 mph - 0.06 in Rain Light Rain
8:56 AM 61.0 °F 61.0 °F 100% 29.72 in 7.0 mi SSW 10.4 mph - 0.08 in Rain Light Rain
9:31 AM 51.8 °F 51.8 °F 100% 29.75 in 6.0 mi NW 13.8 mph 20.7 mph 0.01 in Rain Light Rain
9:32 AM 51.8 °F 51.8 °F 100% 29.75 in 6.0 mi NW 13.8 mph 20.7 mph 0.01 in Rain Light Rain
9:56 AM 50.0 °F 50.0 °F 100% 29.75 in 5.0 mi NW 8.1 mph - 0.05 in Rain Light Rain
10:28 AM 50.0 °F 50.0 °F 100% 29.74 in 4.0 mi ENE 3.5 mph - 0.02 in Rain Light Rain
10:56 AM 50.9 °F 50.9 °F 100% 29.75 in 5.0 mi Variable 4.6 mph - 0.03 in Rain Light Rain
11:56 AM 52.0 °F 52.0 °F 100% 29.71 in 7.0 mi SE 4.6 mph - 0.04 in   Light Drizzle
12:56 PM 56.8 °F 56.8 °F 100% 29.68 in 7.0 mi SSW 6.9 mph - 0.00 in   Partly Cloudy
1:56 PM 55.9 °F 55.9 °F 100% 29.65 in 8.0 mi NNW 9.2 mph - 0.01 in   Overcast
2:56 PM 57.9 °F 57.9 °F 100% 29.59 in 9.0 mi NE 4.6 mph - N/A   Mostly Cloudy
3:56 PM 65.8 °F 65.8 °F 100% 29.55 in 7.0 mi South 20.7 mph 27.6 mph 0.00 in   Overcast
4:56 PM 66.9 °F 64.9 °F 93% 29.52 in 7.0 mi South 20.7 mph - 0.00 in   Overcast
5:56 PM 66.9 °F 64.9 °F 93% 29.49 in 6.0 mi South 21.9 mph 27.6 mph 0.00 in Rain Light Rain
6:30 PM 66.2 °F 64.4 °F 94% 29.44 in 9.0 mi SSE 17.3 mph - 0.00 in Rain , Thunderstorm Light Thunderstorms and Rain
6:35 PM 66.2 °F 64.4 °F 94% 29.58 in 2.0 mi WSW 47.2 mph 57.5 mph 0.09 in Rain , Thunderstorm Thunderstorms and Rain
6:37 PM 64.4 °F 62.6 °F 94% 29.56 in 0.8 mi WSW 29.9 mph 57.5 mph 0.16 in Rain , Thunderstorm Heavy Thunderstorms and Rain
6:45 PM 60.8 °F 60.8 °F 100% 29.58 in 0.8 mi WSW 17.3 mph - 0.18 in Rain , Thunderstorm Light Thunderstorms and Rain
6:47 PM 60.8 °F 60.8 °F 100% 29.57 in 2.0 mi SW 15.0 mph - 0.18 in Rain , Thunderstorm Light Thunderstorms and Rain
6:56 PM 60.8 °F 60.8 °F 100% 29.54 in 4.0 mi SW 12.7 mph 23.0 mph 0.20 in Rain , Thunderstorm Thunderstorms and Rain
7:56 PM 59.9 °F 59.9 °F 100% 29.52 in 4.0 mi SSW 12.7 mph - 0.24 in Rain , Thunderstorm Thunderstorms and Rain
8:08 PM 60.8 °F 60.8 °F 100% 29.53 in 4.0 mi SSW 13.8 mph - 0.26 in Rain , Thunderstorm Thunderstorms and Rain
8:15 PM 60.8 °F 60.8 °F 100% 29.51 in 4.0 mi South 11.5 mph - 0.29 in Rain , Thunderstorm Thunderstorms and Rain
8:56 PM 61.9 °F 61.9 °F 100% 29.51 in 5.0 mi SSW 16.1 mph - 0.34 in Rain , Thunderstorm Light Thunderstorms and Rain
9:56 PM 50.9 °F 50.9 °F 100% 29.56 in 8.0 mi WNW 8.1 mph - 0.17 in Rain Light Rain
10:08 PM 48.2 °F 48.2 °F 100% 29.55 in 7.0 mi West 3.5 mph - 0.01 in Rain Light Rain
10:33 PM 51.8 °F 51.8 °F 100% 29.54 in 5.0 mi SE 4.6 mph - 0.05 in Rain Rain
10:56 PM 59.0 °F 59.0 °F 100% 29.53 in 9.0 mi South 21.9 mph 26.5 mph 0.07 in Rain Light Rain
11:13 PM 59.0 °F 59.0 °F 100% 29.54 in 10.0 mi South 21.9 mph 27.6 mph 0.00 in Rain Light Rain
11:56 PM 59.9 °F 59.9 °F 100% 29.53 in 8.0 mi South 23.0 mph - 0.04 in Rain Light Rain